Total_Precipitation_Accumulation
1.92 1.99 1.90 1.87 1.82 1.83 1.85 1.82 1.79 1.77 1.71 1.74 1.87 1.94 1.91 1.95 2.04 2.13 1.96 2.02 1.98 2.00 1.99 2.10 2.18 2.36 2.34 2.25 2.39 2.45 2.51 2.60 2.28 1.79 1.81 1.95 1.98 1.84 1.84 1.78 1.77 1.76 1.67
1.71 1.73 1.72 1.76 1.76 1.68 1.64 1.71 1.77 1.68 1.60 1.66 1.73 1.73 1.65 1.76 1.93 1.95 1.87 1.95 2.00 1.96 2.08 2.29 2.22 2.33 2.41 2.44 2.63 2.50 2.55 2.84 2.72 2.31 2.19 2.31 2.23 2.10 2.05 1.95 1.70 1.59 1.56
1.46 1.48 1.51 1.52 1.51 1.50 1.50 1.55 1.64 1.67 1.66 1.65 1.62 1.55 1.56 1.63 1.73 1.75 1.89 2.03 2.05 2.08 2.22 2.35 2.40 2.62 2.50 2.56 2.60 2.52 2.57 2.81 2.99 2.70 2.44 2.56 2.49 2.27 2.27 2.00 1.83 1.89 1.64
1.37 1.42 1.56 1.61 1.63 1.65 1.61 1.65 1.75 1.83 1.77 1.79 1.78 1.81 1.85 1.82 1.83 1.93 2.05 2.13 2.16 2.22 2.38 2.42 2.46 2.57 2.64 2.80 2.78 2.83 2.98 3.15 3.28 3.09 2.87 2.93 2.92 2.81 2.64 2.25 2.15 2.05 1.89
1.63 1.69 1.84 2.00 2.03 1.93 1.90 1.97 2.02 2.06 1.99 2.15 2.17 2.19 2.28 2.21 2.02 2.18 2.28 2.27 2.45 2.42 2.47 2.44 2.39 2.55 2.67 2.80 2.65 2.84 3.17 3.33 3.45 3.47 3.37 3.50 3.40 3.30 2.93 2.55 2.44 2.30 2.10
1.46 1.61 1.81 2.02 2.12 2.11 2.15 2.29 2.31 2.26 2.38 2.52 2.48 2.46 2.41 2.12 2.27 2.38 2.40 2.49 2.57 2.51 2.49 2.51 2.45 2.46 2.41 2.45 2.49 2.60 2.83 3.00 3.22 3.44 3.50 3.56 3.54 3.46 3.25 2.95 2.58 2.32 2.11
1.70 1.89 1.98 2.14 2.27 2.30 2.27 2.31 2.35 2.41 2.44 2.51 2.51 2.55 2.40 2.38 2.47 2.28 2.31 2.30 2.42 2.52 2.56 2.57 2.34 2.17 2.25 2.13 2.31 2.40 2.36 2.39 2.50 2.78 2.95 2.96 3.23 3.40 3.34 2.89 2.57 2.27 2.02
1.63 1.79 1.93 2.13 2.28 2.40 2.51 2.53 2.62 2.72 2.75 2.75 2.69 2.68 2.62 2.50 2.46 2.23 2.31 2.19 2.22 2.28 2.33 2.35 2.29 2.18 2.16 2.27 2.28 2.15 1.94 1.88 2.00 1.98 2.02 2.25 2.61 3.03 3.16 2.97 2.91 2.58 2.23
1.92 2.09 2.21 2.31 2.47 2.55 2.61 2.75 2.88 2.99 2.98 2.98 2.94 2.90 2.85 2.83 2.79 2.48 2.39 2.19 2.22 2.21 2.25 2.26 2.21 2.05 2.20 2.16 2.08 2.03 1.88 1.73 1.75 1.80 1.83 2.02 2.30 2.59 2.85 2.88 2.79 2.69 2.35
2.34 2.46 2.61 2.73 2.79 2.75 2.77 2.88 2.95 3.01 3.01 3.01 2.91 2.92 2.86 2.84 2.96 2.70 2.47 2.20 2.22 2.24 2.33 2.33 2.32 2.14 2.18 2.11 2.03 2.02 1.89 1.79 1.82 1.79 1.81 1.83 1.85 2.16 2.51 2.49 2.52 2.59 2.41
2.61 2.65 2.72 2.87 3.05 3.15 3.22 3.05 2.90 2.90 2.97 3.04 2.99 3.02 3.02 2.98 2.99 2.62 2.44 2.30 2.31 2.33 2.28 2.22 2.24 2.25 2.01 1.86 1.78 1.76 1.82 1.92 1.96 1.87 1.79 1.76 1.80 1.89 2.09 2.15 2.22 2.29 2.26
2.54 2.63 2.72 2.80 2.78 2.83 3.09 3.15 3.09 3.00 2.92 2.92 2.99 2.91 2.82 2.78 2.66 2.34 2.11 2.08 2.13 2.13 2.12 2.11 2.12 2.08 1.85 1.65 1.47 1.41 1.52 1.56 1.63 1.70 1.66 1.62 1.64 1.69 1.86 2.12 2.26 2.26 2.18
2.41 2.54 2.72 2.80 2.86 2.84 2.85 2.91 2.92 2.88 2.74 2.58 2.60 2.62 2.64 2.65 2.54 2.24 1.94 1.83 1.84 1.77 1.84 2.03 2.03 1.89 1.75 1.63 1.55 1.48 1.39 1.30 1.39 1.50 1.44 1.45 1.50 1.60 1.80 2.12 2.35 2.52 2.44
2.42 2.47 2.53 2.58 2.60 2.68 2.82 2.78 2.73 2.74 2.70 2.55 2.55 2.57 2.57 2.52 2.32 2.05 1.88 1.78 1.74 1.67 1.74 1.94 2.01 1.97 1.85 1.74 1.66 1.50 1.31 1.28 1.31 1.35 1.41 1.45 1.55 1.64 1.74 1.90 2.20 2.41 2.50
2.21 2.15 2.22 2.33 2.40 2.42 2.58 2.66 2.53 2.44 2.48 2.40 2.46 2.64 2.58 2.36 2.19 2.04 1.80 1.71 1.70 1.77 1.81 1.90 2.03 2.06 2.04 1.93 1.78 1.63 1.50 1.40 1.33 1.30 1.39 1.44 1.49 1.52 1.53 1.61 1.85 2.03 2.04
2.20 2.18 2.18 2.24 2.31 2.35 2.33 2.39 2.42 2.20 2.15 2.03 2.08 2.17 2.21 2.10 1.99 1.92 1.81 1.74 1.69 1.69 1.67 1.77 2.04 2.12 2.13 2.11 1.99 1.79 1.62 1.51 1.44 1.42 1.44 1.44 1.46 1.53 1.57 1.64 1.75 1.90 1.92
2.30 2.37 2.32 2.15 2.09 2.09 2.08 2.06 2.07 1.98 1.75 1.63 1.60 1.58 1.56 1.58 1.60 1.68 1.71 1.67 1.60 1.47 1.37 1.52 1.81 2.01 2.09 2.10 2.01 1.81 1.61 1.59 1.65 1.60 1.54 1.51 1.51 1.53 1.63 1.69 1.77 1.89 1.94
1.99 2.06 2.04 1.92 1.85 1.79 1.75 1.72 1.66 1.71 1.66 1.51 1.44 1.39 1.38 1.37 1.41 1.61 1.74 1.56 1.43 1.36 1.26 1.40 1.63 1.90 2.03 2.09 2.07 1.99 1.83 1.77 1.78 1.74 1.69 1.64 1.61 1.62 1.63 1.65 1.69 1.76 1.80
1.80 1.82 1.77 1.77 1.81 1.83 1.89 1.86 1.74 1.71 1.77 1.75 1.62 1.42 1.40 1.39 1.44 1.71 1.80 1.44 1.32 1.38 1.41 1.43 1.52 1.71 1.92 2.04 2.05 2.03 1.97 1.92 1.91 1.92 1.86 1.81 1.78 1.80 1.75 1.68 1.69 1.78 1.79
1.70 1.85 1.81 1.69 1.70 1.86 1.98 1.93 1.92 1.98 1.97 2.04 2.02 1.71 1.53 1.43 1.35 1.61 1.74 1.58 1.51 1.51 1.50 1.50 1.56 1.69 1.89 2.06 2.11 2.07 2.09 2.03 2.00 1.98 1.93 1.88 1.83 1.84 1.84 1.81 1.83 1.87 1.80
1.62 1.66 1.70 1.64 1.66 1.76 1.85 1.90 1.89 1.93 2.03 2.07 2.04 1.84 1.63 1.41 1.47 1.70 1.90 1.83 1.70 1.68 1.67 1.66 1.69 1.82 1.93 2.01 2.01 1.94 1.93 1.98 1.95 1.91 1.89 1.87 1.83 1.78 1.79 1.84 1.85 1.91 1.88
1.61 1.59 1.61 1.60 1.65 1.69 1.72 1.81 1.90 1.96 2.03 2.10 1.98 1.86 1.82 1.64 1.64 1.78 1.89 1.86 1.80 1.77 1.73 1.73 1.76 1.84 1.89 1.91 1.91 1.88 1.86 1.88 1.86 1.86 1.89 1.89 1.88 1.86 1.88 1.89 1.90 1.95 1.96
1.45 1.50 1.58 1.59 1.59 1.59 1.59 1.60 1.64 1.71 1.83 1.90 1.79 1.76 1.77 1.78 1.72 1.74 1.83 1.83 1.77 1.73 1.65 1.65 1.67 1.68 1.68 1.71 1.70 1.72 1.74 1.73 1.74 1.79 1.90 1.93 1.94 1.92 1.89 1.85 1.83 1.89 1.94
1.15 1.19 1.21 1.28 1.32 1.37 1.43 1.48 1.44 1.46 1.56 1.65 1.59 1.60 1.60 1.61 1.58 1.58 1.61 1.63 1.64 1.65 1.63 1.58 1.56 1.56 1.52 1.50 1.53 1.55 1.52 1.54 1.57 1.64 1.74 1.85 1.89 1.94 1.96 1.92 1.94 1.95 1.99
1.19 1.18 1.14 1.21 1.26 1.29 1.33 1.37 1.40 1.45 1.47 1.48 1.49 1.49 1.49 1.47 1.48 1.51 1.50 1.49 1.47 1.45 1.38 1.38 1.42 1.43 1.44 1.37 1.30 1.29 1.36 1.36 1.35 1.42 1.47 1.61 1.72 1.83 1.87 1.88 1.96 2.03 2.03
1.16 1.19 1.19 1.21 1.24 1.27 1.30 1.33 1.37 1.36 1.36 1.33 1.33 1.36 1.42 1.42 1.39 1.38 1.33 1.31 1.34 1.32 1.27 1.23 1.23 1.26 1.27 1.24 1.23 1.28 1.25 1.12 1.15 1.29 1.31 1.38 1.54 1.64 1.71 1.77 1.77 1.86 1.93